Starlink 33814

operational
NORAD ID: 63582 Int'l Des: 2025-076 Owner: SPXS Country: US Constellation: starlink
LEOCIRCULAR

About Starlink 33814

Description loading...

Live Position

Loading 3D Globe...

Upcoming Passes

Altitude History

Altitude vs Time

uPlot chart will show altitude changes over time

Two-Line Element Set

1 63582U 25076P 26036.32498000 .00056573 00000-0 20467-2 0 9994
2 63582 42.9990 144.2116 0001899 283.5492 76.5148 15.27626660 46886
Epoch: Feb 5, 2026 • Age: 6 hours

Current Status

Altitude 482.4 km
Velocity 7.63 km/s
Sub-Earth Point 18.97°N, 175.47°E
Launch Date Apr 14, 2025
Age 0.8 years
Type internet

Technical Details

Classification Payload
Mass 575.00 kg
Dry Mass 530.00 kg
Total Mass 575.00 kg
Length 0.30 m
Diameter 4.10 m
Span 29.00 m
Shape Box + pan
Manufacturer SPXS
Bus Type Starlink V2MO
Phase Status In Orbit
Owner/State SPXS/US

Large Constellations

Loading constellations...